Location: Innerarity Island Observatory
(30.3139°N, 87.4867°W)
Time: 20:03:04
(UTC-05:00)

Amateur Radio Satellites - All Passes

Search period start: 23 July 2016 19:33
Search period end: 24 July 2016 19:33
Location: Innerarity Island Observatory, 30.3139°N, 87.4867°W

Satellite Date Start Highest point End Downlink Frequencies (MHz)
Time Altitude Azimuth
CANX-2 23 Jul 19:33:25 19:37:13 31° 73° (ENE) 19:41:00 2200.000
DOVE 4 23 Jul 19:38:35 19:42:33 45° 261° (W) 19:46:41 437.250
Cubesat XI-IV 23 Jul 19:40:36 19:44:13 18° 265° (W) 19:47:51 437.490
CUTE 1.7 + AOD 2 23 Jul 19:47:26 19:51:26 40° 74° (ENE) 19:55:26 437.475
AAUSAT CUBESAT 2 23 Jul 19:52:06 19:54:38 16° 70° (ENE) 19:57:09 437.432
STRAND 1 23 Jul 19:58:39 20:03:45 71° 102° (ESE) 20:08:49 437.568
UWE-3 23 Jul 20:05:17 20:07:43 14° 68° (ENE) 20:10:11 435.000/436.395/437.385
PCSat 23 Jul 20:10:21 20:15:45 79° 294° (WNW) 20:21:12 145.827
ZACube-1 23 Jul 20:15:59 20:17:35 12° 67° (ENE) 20:19:12 437.345
CUBEBUG 2 23 Jul 20:17:07 20:21:02 30° 72° (ENE) 20:25:03 437.445
FUNcube-1 23 Jul 20:17:34 20:18:57 11° 67° (ENE) 20:20:21 145.935
CINEMA 3 23 Jul 20:19:08 20:23:26 63° 260° (W) 20:27:57 145.822/145.860
PHONESAT 2.4 23 Jul 20:19:25 20:21:14 14° 350° (N) 20:23:03 2401.200-2431.200
BEESAT 2 23 Jul 20:25:45 20:29:08 27° 303° (WNW) 20:32:32 435.950
BEESAT 3 23 Jul 20:29:23 20:31:24 14° 307° (NW) 20:33:25 437.485
SEEDS 23 Jul 20:33:49 20:38:03 74° 260° (W) 20:42:17 437.485
Cosmos 2491 23 Jul 20:35:27 20:40:04 16° 81° (E) 20:44:41 435.465 / 435.565
HO-68 23 Jul 20:47:05 20:53:58 49° 259° (W) 21:00:54 435.675
DELFI C3 23 Jul 20:50:22 20:51:11 11° 69° (ENE) 20:52:00 145.870
COMPASS 1 23 Jul 20:53:15 20:57:24 62° 259° (W) 21:01:33 437.405
Oscar 11 23 Jul 21:02:42 21:06:50 44° 75° (ENE) 21:10:59 145.826/435.025
CANX-2 23 Jul 21:10:28 21:13:03 16° 265° (W) 21:15:39 2200.000
YUBILEINY 23 Jul 21:13:36 21:22:13 54° 81° (E) 21:30:43 435.215
O/OREOS (USA 219) 23 Jul 21:19:14 21:23:41 89° 277° (W) 21:28:10 437.305
CUTE 1.7 + AOD 2 23 Jul 21:25:42 21:27:21 12° 266° (W) 21:29:01 437.475
AAUSAT CUBESAT 2 23 Jul 21:26:08 21:29:49 30° 262° (W) 21:33:29 437.432
ISS 23 Jul 21:28:59 21:31:54 31° 129° (SE) 21:34:49 145.825
PRISM 23 Jul 21:36:31 21:40:34 69° 284° (WNW) 21:44:39 437.425
Cosmos 2504 23 Jul 21:38:11 21:44:00 21° 72° (ENE) 21:49:32 435.465 / 435.565
UWE-3 23 Jul 21:39:33 21:43:45 40° 262° (W) 21:48:04 435.000/436.395/437.385
STRAND 1 23 Jul 21:41:36 21:42:15 10° 296° (WNW) 21:42:53 437.568
M-CUBED/EXP-1 PRIME 23 Jul 21:45:38 21:49:07 74° 73° (ENE) 21:52:55 437.505
ZACube-1 23 Jul 21:49:02 21:53:20 49° 261° (W) 21:57:45 437.345
FUNcube-1 23 Jul 21:50:19 21:54:38 51° 260° (W) 21:59:04 145.935
AIST 2 23 Jul 21:52:07 21:56:12 81° 297° (WNW) 22:00:19 435.215
CUBEBUG 2 23 Jul 21:54:32 21:57:38 18° 266° (W) 22:00:47 437.445
PHONESAT 2.4 23 Jul 21:56:54 21:58:34 14° 8° (N) 22:00:14 2401.200-2431.200
HUMSAT D 23 Jul 22:02:34 22:06:37 42° 75° (ENE) 22:10:42 437.325/437.525
ANTELSAT 23 Jul 22:10:34 22:13:40 18° 95° (E) 22:16:42 437.575/2403.000
AUBIESAT-1 23 Jul 22:15:15 22:18:43 51° 256° (WSW) 22:22:28 437.475
DELFI C3 23 Jul 22:21:50 22:25:37 41° 261° (W) 22:29:24 145.870
Cosmos 2491 23 Jul 22:27:04 22:35:48 79° 276° (W) 22:44:32 435.465 / 435.565
Oscar 11 23 Jul 22:41:49 22:43:07 11° 267° (W) 22:44:25 145.826/435.025
TIGRISAT 23 Jul 22:52:13 22:56:46 53° 100° (E) 23:01:11 435.000
AISAT 23 Jul 22:55:15 22:57:48 15° 69° (ENE) 23:00:22 437.250
ISS 23 Jul 23:06:07 23:08:22 17° 323° (NW) 23:10:37 145.825
UNISAT 6 23 Jul 23:07:10 23:11:50 88° 100° (E) 23:16:21 437.425
DX 1 23 Jul 23:08:55 23:11:23 15° 69° (ENE) 23:13:50 434.975-435.025
YUBILEINY 23 Jul 23:11:33 23:18:22 26° 276° (W) 23:25:10 435.215
ESTCUBE 1 23 Jul 23:12:05 23:16:20 43° 74° (ENE) 23:20:35 437.505/2401.250
50 SAT 23 Jul 23:14:15 23:17:10 22° 73° (ENE) 23:20:04 437.505
UKube-1 23 Jul 23:29:13 23:32:24 20° 70° (ENE) 23:35:34 .
Cosmos 2504 23 Jul 23:29:59 23:37:52 58° 269° (W) 23:45:11 435.465 / 435.565
PHONESAT 2.4 23 Jul 23:32:45 23:35:38 35° 23° (NNE) 23:38:30 2401.200-2431.200
NANOSAT C BR1 23 Jul 23:32:47 23:35:54 20° 96° (E) 23:38:59 145.865
DUCHIFAT 1 23 Jul 23:38:50 23:42:08 22° 96° (E) 23:45:25 145.980
HUMSAT D 23 Jul 23:40:55 23:42:22 11° 267° (W) 23:43:50 437.325/437.525
VELOX 1 23 Jul 23:45:13 23:49:30 60° 76° (ENE) 23:53:49 145.980
ANTELSAT 23 Jul 23:46:15 23:50:22 32° 288° (WNW) 23:54:24 437.575/2403.000
QB50P1 23 Jul 23:52:09 23:56:07 37° 99° (E) 00:00:04 145.935-145.965
CUBEBUG 1 23 Jul 23:56:40 00:00:59 83° 258° (WSW) 00:05:18 437.445
POPSAT HIP 1 23 Jul 23:58:08 00:02:13 43° 99° (E) 00:06:17 437.405
SPROUT 24 Jul 00:09:06 00:13:11 47° 75° (ENE) 00:17:17 437.525
BUGSAT 1 24 Jul 00:09:36 00:12:50 21° 96° (E) 00:16:04 437.445
AIST 1 24 Jul 00:11:17 00:12:33 11° 75° (ENE) 00:13:50
QB50P2 24 Jul 00:17:53 00:22:11 87° 102° (ESE) 00:26:27 145.880/145.840
POLYITAN 1 24 Jul 00:20:31 00:24:51 89° 114° (ESE) 00:29:07 437.675
AISAT 24 Jul 00:29:58 00:33:56 34° 261° (W) 00:37:57 437.250
TIGRISAT 24 Jul 00:31:26 00:32:53 11° 293° (WNW) 00:34:19 435.000
Cosmos 2491 24 Jul 00:31:50 00:33:52 11° 293° (WNW) 00:35:54 435.465 / 435.565
AO-85 24 Jul 00:36:19 00:40:30 68° 246° (WSW) 00:44:24 145.980
DX 1 24 Jul 00:43:17 00:47:13 34° 261° (W) 00:51:11 434.975-435.025
50 SAT 24 Jul 00:48:26 00:50:42 15° 264° (W) 00:52:57 437.505
ESTCUBE 1 24 Jul 00:51:22 00:53:16 12° 266° (W) 00:55:09 437.505/2401.250
JAS-2 24 Jul 00:51:42 00:56:49 45° 101° (E) 01:02:21 435.910
UKube-1 24 Jul 01:04:43 01:08:14 25° 263° (W) 01:11:47 .
NANOSAT C BR1 24 Jul 01:08:01 01:11:31 25° 288° (WNW) 01:15:00 145.865
PHONESAT 2.4 24 Jul 01:09:27 01:12:04 25° 217° (SW) 01:14:40 2401.200-2431.200
DUCHIFAT 1 24 Jul 01:14:21 01:17:41 23° 289° (WNW) 01:21:01 145.980
TISAT 1 24 Jul 01:18:26 01:22:35 72° 76° (ENE) 01:26:46 437.305
GONETS M04 24 Jul 01:25:39 01:27:36 11° 67° (ENE) 01:29:33
QB50P1 24 Jul 01:29:20 01:31:31 14° 291° (WNW) 01:33:43 145.935-145.965
BEESAT 24 Jul 01:29:21 01:32:12 16° 68° (ENE) 01:35:03 436.000
POPSAT HIP 1 24 Jul 01:35:55 01:37:33 12° 292° (WNW) 01:39:12 437.405
Gurwin Techsat 1B 24 Jul 01:41:14 01:43:56 14° 94° (E) 01:46:38 435.225
BUGSAT 1 24 Jul 01:44:41 01:48:04 23° 289° (WNW) 01:51:27 437.445
AIST 1 24 Jul 01:46:12 01:50:18 42° 267° (W) 01:54:24
ITUPSAT 1 24 Jul 01:48:41 01:52:37 26° 71° (ENE) 01:56:33 437.325
JUGNU 24 Jul 02:09:56 02:13:44 17° 165° (SSE) 02:17:30 437.505
Oscar 19 24 Jul 02:28:28 02:33:37 70° 285° (WNW) 02:38:46 437.125/150
JAS-2 24 Jul 02:38:17 02:41:37 17° 291° (WNW) 02:45:04 435.910
Cosmos 2499 24 Jul 02:41:11 02:47:36 27° 74° (ENE) 02:53:38 435.465 / 435.565
SWISSCUBE 24 Jul 02:42:58 02:47:43 66° 259° (WSW) 02:52:29 437.505
MOZHAYETS 4 24 Jul 02:45:39 02:46:16 10° 67° (ENE) 02:46:52
BEESAT 24 Jul 03:05:05 03:09:34 41° 260° (W) 03:14:06 436.000
CUSAT 1 24 Jul 03:08:46 03:11:18 14° 95° (E) 03:13:33 437.405
AO-7 24 Jul 03:13:46 03:19:33 20° 96° (E) 03:25:18 29.400- 29.500
GONETS M04 24 Jul 03:16:51 03:25:41 78° 84° (E) 03:34:32
Gurwin Techsat 1B 24 Jul 03:18:56 03:24:06 53° 286° (WNW) 03:29:14 435.225
STARS 24 Jul 03:25:32 03:27:40 14° 68° (ENE) 03:29:50 437.465
ITUPSAT 1 24 Jul 03:26:24 03:30:18 25° 263° (W) 03:34:13 437.325
ITAMSAT 1 24 Jul 03:54:40 03:59:52 76° 284° (WNW) 04:05:00 435.822/435.867
JUGNU 24 Jul 03:57:16 04:02:13 27° 174° (S) 04:07:08 437.505
KKS-1 24 Jul 04:10:30 04:14:55 75° 259° (WSW) 04:19:21 437.445
MOZHAYETS 4 24 Jul 04:18:17 04:22:51 60° 259° (W) 04:27:26
SRMSAT 24 Jul 04:19:50 04:23:25 16° 164° (SSE) 04:26:59 437.500
Cosmos 2499 24 Jul 04:33:38 04:40:48 42° 272° (W) 04:47:32 435.465 / 435.565
DANDE 24 Jul 04:34:39 04:41:19 58° 96° (E) 04:46:22 436.750
CUSAT 1 24 Jul 04:48:37 04:53:14 33° 277° (W) 04:56:52 437.405
BEESAT 2 24 Jul 04:48:44 04:52:09 27° 58° (ENE) 04:55:34 435.950
BEESAT 3 24 Jul 04:49:36 04:53:30 56° 61° (ENE) 04:57:22 437.485
STARS 24 Jul 04:59:32 05:03:37 40° 261° (W) 05:07:46 437.465
AO-7 24 Jul 05:04:28 05:12:44 68° 290° (WNW) 05:20:56 29.400- 29.500
PCSat 24 Jul 05:04:40 05:09:06 25° 58° (ENE) 05:13:30 145.827
GONETS M04 24 Jul 05:16:30 05:21:25 16° 279° (W) 05:26:21
CUBESAT XI-V 24 Jul 05:27:45 05:32:24 84° 78° (ENE) 05:37:02 437.345
HORYU 2 24 Jul 05:31:27 05:35:52 56° 101° (E) 05:40:13 437.375
ISS 24 Jul 05:37:10 05:40:06 30° 41° (NE) 05:43:00 145.825
NOAA 15 24 Jul 05:41:18 05:43:43 13° 94° (E) 05:46:09 137.62
JUGNU 24 Jul 05:45:44 05:50:45 29° 184° (S) 05:55:45 437.505
GOMX 1 24 Jul 05:56:36 05:57:53 11° 93° (E) 05:59:11 467.674
RS-15 24 Jul 06:05:04 06:14:42 34° 104° (ESE) 06:24:43 29.354- 29.394
SRMSAT 24 Jul 06:07:09 06:12:02 27° 173° (S) 06:16:55 437.500
BRITE-PL 24 Jul 06:10:57 06:15:29 38° 99° (E) 06:20:19 437.365/2234.400
AIST 2 24 Jul 06:20:34 06:22:24 13° 52° (NE) 06:24:14 435.215
DANDE 24 Jul 06:20:37 06:23:50 14° 281° (W) 06:26:42 436.750
Cubesat XI-IV 24 Jul 06:22:29 06:26:59 27° 97° (E) 06:31:27 437.490
BEESAT 2 24 Jul 06:27:05 06:29:44 17° 251° (WSW) 06:32:24 435.950
CUTE-I 24 Jul 06:46:46 06:51:57 50° 100° (E) 06:57:04 437.470
PCSat 24 Jul 06:47:38 06:52:28 34° 252° (WSW) 06:57:17 145.827
NOAA 18 24 Jul 06:52:51 06:58:19 57° 102° (ESE) 07:03:42 137.9125
AO-7 24 Jul 07:02:16 07:03:56 11° 307° (NW) 07:05:36 29.400- 29.500
STRAND 1 24 Jul 07:08:40 07:13:42 56° 74° (ENE) 07:18:44 437.568
HORYU 2 24 Jul 07:11:37 07:11:51 10° 294° (WNW) 07:12:05 437.375
ISS 24 Jul 07:14:16 07:16:18 16° 234° (SW) 07:18:20 145.825
NOAA 15 24 Jul 07:18:36 07:23:43 55° 286° (WNW) 07:28:51 137.62
LilacSat-2 24 Jul 07:25:32 07:29:12 43° 285° (WNW) 07:32:50 437.200
GOMX 1 24 Jul 07:31:06 07:36:07 66° 284° (WNW) 07:41:25 467.674
SO-50 24 Jul 07:31:59 07:34:30 14° 108° (ESE) 07:37:01 436.795
O/OREOS (USA 219) 24 Jul 07:34:51 07:39:21 67° 71° (ENE) 07:43:52 437.305
JUGNU 24 Jul 07:35:05 07:39:15 20° 193° (SSW) 07:43:24 437.505
CUTE 1.7 + AOD 2 24 Jul 07:40:49 07:41:35 10° 93° (E) 07:42:22 437.475
DOVE 4 24 Jul 07:41:51 07:47:00 73° 101° (ESE) 07:52:17 437.250
BRITE-PL 24 Jul 07:50:25 07:53:42 18° 289° (WNW) 07:57:07 437.365/2234.400
SRMSAT 24 Jul 07:55:42 08:00:43 29° 183° (S) 08:05:47 437.500
AIST 2 24 Jul 07:57:05 08:01:06 47° 246° (WSW) 08:05:05 435.215
Cubesat XI-IV 24 Jul 08:02:25 08:06:55 28° 290° (WNW) 08:11:24 437.490
RS-15 24 Jul 08:15:20 08:26:23 57° 302° (WNW) 08:38:09 29.354- 29.394
CUBEBUG 2 24 Jul 08:16:29 08:17:20 10° 92° (E) 08:18:12 437.445
CINEMA 3 24 Jul 08:19:12 08:24:05 50° 99° (E) 08:28:54 145.822/145.860
PRISM 24 Jul 08:20:20 08:24:04 35° 73° (ENE) 08:27:47 437.425
HO-68 24 Jul 08:20:56 08:27:48 46° 101° (E) 08:34:36 435.675
SEEDS 24 Jul 08:23:53 08:27:26 27° 97° (E) 08:30:56 437.485
CUTE-I 24 Jul 08:28:22 08:31:30 16° 294° (WNW) 08:34:38 437.470
NOAA 18 24 Jul 08:35:21 08:38:24 15° 295° (WNW) 08:41:27 137.9125
COMPASS 1 24 Jul 08:42:04 08:45:43 30° 98° (E) 08:49:21 437.405
Cosmos 2491 24 Jul 08:44:57 08:53:02 40° 78° (ENE) 09:01:05 435.465 / 435.565
STRAND 1 24 Jul 08:51:00 08:53:06 12° 266° (W) 08:55:12 437.568
Oscar 11 24 Jul 08:57:28 08:59:22 13° 94° (E) 09:01:16 145.826/435.025
CANX-2 24 Jul 08:59:21 09:03:29 56° 284° (WNW) 09:07:35 2200.000
SO-50 24 Jul 09:09:48 09:14:31 50° 300° (WNW) 09:19:15 436.795
AAUSAT CUBESAT 2 24 Jul 09:13:30 09:17:34 61° 101° (E) 09:21:37 437.432
CUTE 1.7 + AOD 2 24 Jul 09:13:35 09:17:34 43° 285° (WNW) 09:21:32 437.475
DOVE 4 24 Jul 09:23:00 09:24:03 11° 294° (WNW) 09:25:07 437.250
M-CUBED/EXP-1 PRIME 24 Jul 09:32:15 09:33:44 11° 97° (E) 09:35:13 437.505
UWE-3 24 Jul 09:34:43 09:39:18 64° 101° (E) 09:43:43 435.000/436.395/437.385
ZACube-1 24 Jul 09:43:10 09:47:32 49° 99° (E) 09:51:46 437.345
FUNcube-1 24 Jul 09:44:12 09:48:31 46° 99° (E) 09:52:42 145.935
SRMSAT 24 Jul 09:45:05 09:49:23 21° 193° (SSW) 09:53:43 437.500
TIGRISAT 24 Jul 09:45:31 09:49:08 24° 71° (ENE) 09:52:50 435.000
CUBEBUG 2 24 Jul 09:49:37 09:54:13 54° 285° (WNW) 09:58:42 437.445
HUMSAT D 24 Jul 09:54:51 09:55:21 10° 93° (E) 09:55:52 437.325/437.525
PRISM 24 Jul 09:57:46 09:59:26 12° 265° (W) 10:01:05 437.425
CINEMA 3 24 Jul 09:58:01 10:00:42 15° 292° (WNW) 10:03:22 145.822/145.860
AUBIESAT-1 24 Jul 09:59:36 10:03:00 20° 100° (E) 10:06:21 437.475
UNISAT 6 24 Jul 10:00:04 10:04:16 37° 73° (ENE) 10:08:33 437.425
SEEDS 24 Jul 10:00:07 10:02:53 17° 289° (WNW) 10:05:37 437.485
DELFI C3 24 Jul 10:05:02 10:08:39 34° 98° (E) 10:12:14 145.870
YUBILEINY 24 Jul 10:06:40 10:15:22 74° 93° (E) 10:24:09 435.215
Cosmos 2504 24 Jul 10:08:33 10:14:56 23° 83° (E) 10:21:20 435.465 / 435.565
HO-68 24 Jul 10:09:17 10:15:07 28° 295° (WNW) 10:20:57 435.675
COMPASS 1 24 Jul 10:18:35 10:20:58 15° 290° (WNW) 10:23:22 437.405
Oscar 11 24 Jul 10:31:36 10:35:35 38° 286° (WNW) 10:39:34 145.826/435.025
RS-15 24 Jul 10:36:16 10:42:20 15° 330° (NNW) 10:48:32 29.354- 29.394
ANTELSAT 24 Jul 10:38:17 10:42:49 75° 259° (WSW) 10:47:29 437.575/2403.000
QB50P1 24 Jul 10:40:37 10:42:44 14° 69° (ENE) 10:44:51 145.935-145.965
Cosmos 2491 24 Jul 10:41:57 10:49:35 35° 273° (W) 10:57:16 435.465 / 435.565
POPSAT HIP 1 24 Jul 10:46:15 10:48:49 16° 69° (ENE) 10:51:23 437.405
JAS-2 24 Jul 11:03:44 11:04:03 10° 65° (ENE) 11:04:21 435.910
M-CUBED/EXP-1 PRIME 24 Jul 11:03:49 11:08:26 57° 289° (WNW) 11:13:01 437.505
QB50P2 24 Jul 11:05:03 11:08:43 29° 73° (ENE) 11:12:25 145.880/145.840
POLYITAN 1 24 Jul 11:07:39 11:11:22 30° 73° (ENE) 11:15:05 437.675
ESTCUBE 1 24 Jul 11:11:43 11:14:08 14° 95° (E) 11:16:32 437.505/2401.250
ZACube-1 24 Jul 11:21:48 11:23:17 12° 293° (WNW) 11:24:46 437.345
TIGRISAT 24 Jul 11:21:58 11:25:40 24° 264° (W) 11:29:26 435.000
FUNcube-1 24 Jul 11:22:34 11:24:15 12° 293° (WNW) 11:25:55 145.935
HUMSAT D 24 Jul 11:27:10 11:31:09 43° 285° (WNW) 11:35:04 437.325/437.525
AUBIESAT-1 24 Jul 11:33:16 11:37:23 32° 292° (WNW) 11:41:28 437.475
UNISAT 6 24 Jul 11:38:25 11:41:03 15° 266° (W) 11:43:45 437.425
DELFI C3 24 Jul 11:41:37 11:43:08 12° 291° (WNW) 11:44:38 145.870
VELOX 1 24 Jul 11:41:57 11:45:00 18° 96° (E) 11:48:02 145.980
CUBEBUG 1 24 Jul 11:51:16 11:55:03 28° 98° (E) 11:58:48 437.445
NANOSAT C BR1 24 Jul 11:53:25 11:57:36 73° 258° (WSW) 12:01:50 145.865
Cosmos 2504 24 Jul 11:58:52 12:07:29 63° 278° (W) 12:16:19 435.465 / 435.565
DUCHIFAT 1 24 Jul 11:59:22 12:03:32 66° 259° (W) 12:07:45 145.980
SPROUT 24 Jul 12:02:26 12:04:28 13° 94° (E) 12:06:30 437.525
YUBILEINY 24 Jul 12:07:16 12:12:52 18° 289° (WNW) 12:18:31 435.215
QB50P1 24 Jul 12:14:14 12:18:07 36° 261° (W) 12:22:03 145.935-145.965
POPSAT HIP 1 24 Jul 12:20:32 12:24:17 31° 262° (W) 12:28:04 437.405
50 SAT 24 Jul 12:21:07 12:24:40 63° 100° (E) 12:28:13 437.505
AISAT 24 Jul 12:25:13 12:29:39 67° 102° (ESE) 12:34:04 437.250
BUGSAT 1 24 Jul 12:27:44 12:31:45 72° 260° (W) 12:35:50 437.445
DX 1 24 Jul 12:36:35 12:40:55 61° 101° (E) 12:45:14 434.975-435.025
QB50P2 24 Jul 12:41:49 12:44:30 16° 265° (W) 12:47:12 145.880/145.840
JAS-2 24 Jul 12:42:00 12:48:34 87° 257° (WSW) 12:54:22 435.910
POLYITAN 1 24 Jul 12:44:32 12:47:09 16° 265° (W) 12:49:47 437.675
ESTCUBE 1 24 Jul 12:46:53 12:51:00 37° 286° (WNW) 12:55:07 437.505/2401.250
UKube-1 24 Jul 12:56:28 13:00:49 83° 102° (ESE) 13:05:08 .
Gurwin Techsat 1B 24 Jul 12:57:23 12:59:56 14° 66° (ENE) 13:02:27 435.225
AO-85 24 Jul 13:05:53 13:08:46 15° 107° (ESE) 13:11:37 145.980
TISAT 1 24 Jul 13:09:04 13:11:55 17° 96° (E) 13:14:47 437.305
VELOX 1 24 Jul 13:17:34 13:21:25 29° 288° (WNW) 13:25:16 145.980
CUBEBUG 1 24 Jul 13:27:58 13:31:05 19° 290° (WNW) 13:34:12 437.445
SPROUT 24 Jul 13:36:29 13:40:29 37° 286° (WNW) 13:44:28 437.525
Oscar 19 24 Jul 13:39:25 13:44:32 87° 257° (WSW) 13:49:40 437.125/150
AO-7 24 Jul 14:07:48 14:13:01 18° 58° (ENE) 14:18:13 29.400- 29.500
AIST 1 24 Jul 14:09:13 14:13:22 54° 278° (W) 14:17:32
GONETS M04 24 Jul 14:18:37 14:23:19 16° 81° (E) 14:28:00
Gurwin Techsat 1B 24 Jul 14:34:05 14:39:18 59° 259° (W) 14:44:33 435.225
AO-85 24 Jul 14:43:28 14:48:48 58° 299° (WNW) 14:54:00 145.980
TISAT 1 24 Jul 14:43:54 14:47:31 28° 288° (WNW) 14:51:07 437.305
SWISSCUBE 24 Jul 14:48:56 14:53:33 50° 100° (E) 14:58:09 437.505
ITAMSAT 1 24 Jul 15:06:40 15:11:53 89° 257° (WSW) 15:17:09 435.822/435.867
Cosmos 2499 24 Jul 15:09:15 15:16:30 30° 85° (E) 15:23:44 435.465 / 435.565
BEESAT 24 Jul 15:10:34 15:15:21 80° 102° (ESE) 15:20:05 436.000
RS-15 24 Jul 15:12:40 15:22:37 27° 44° (NE) 15:32:25 29.354- 29.394
CUSAT 1 24 Jul 15:26:14 15:29:17 79° 83° (E) 15:33:07 437.405
ITUPSAT 1 24 Jul 15:31:39 15:36:21 60° 285° (WNW) 15:41:01 437.325
AO-7 24 Jul 15:56:25 16:04:46 82° 254° (WSW) 16:13:12 29.400- 29.500
KKS-1 24 Jul 16:07:23 16:11:25 32° 98° (E) 16:15:26 437.445
GONETS M04 24 Jul 16:10:21 16:19:01 78° 277° (W) 16:27:45
MOZHAYETS 4 24 Jul 16:19:04 16:23:30 49° 100° (E) 16:27:54
HORYU 2 24 Jul 16:24:12 16:27:53 26° 71° (ENE) 16:31:35 437.375
SWISSCUBE 24 Jul 16:28:46 16:30:51 13° 293° (WNW) 16:32:57 437.505
STARS 24 Jul 16:54:13 16:58:36 56° 101° (E) 17:02:57 437.465
NOAA 15 24 Jul 16:56:33 16:58:47 13° 65° (ENE) 17:01:01 137.62
Cosmos 2499 24 Jul 17:00:39 17:09:08 50° 280° (W) 17:17:38 435.465 / 435.565
DANDE 24 Jul 17:04:23 17:05:11 11° 265° (W) 17:06:02 436.750
BRITE-PL 24 Jul 17:17:57 17:20:59 20° 71° (ENE) 17:23:58 437.365/2234.400
RS-15 24 Jul 17:24:09 17:36:33 84° 246° (WSW) 17:48:38 29.354- 29.394
CUBESAT XI-V 24 Jul 17:30:21 17:34:28 32° 98° (E) 17:38:34 437.345
PHONESAT 2.4 24 Jul 17:35:41 17:38:45 82° 150° (SSE) 17:41:50 2401.200-2431.200
Cubesat XI-IV 24 Jul 17:39:00 17:43:24 27° 70° (ENE) 17:47:50 437.490
KKS-1 24 Jul 17:44:45 17:47:41 17° 291° (WNW) 17:50:37 437.445
SO-50 24 Jul 17:47:09 17:51:12 30° 57° (ENE) 17:55:08 436.795
AO-7 24 Jul 17:56:16 17:58:22 11° 267° (W) 18:00:28 29.400- 29.500
MOZHAYETS 4 24 Jul 17:58:29 18:00:10 12° 293° (WNW) 18:01:51
HORYU 2 24 Jul 18:00:56 18:04:20 21° 263° (W) 18:07:45 437.375
LilacSat-2 24 Jul 18:01:36 18:05:09 36° 75° (ENE) 18:08:43 437.200
CUTE-I 24 Jul 18:02:49 18:07:56 47° 73° (ENE) 18:13:04 437.470
NOAA 18 24 Jul 18:13:19 18:18:44 62° 74° (ENE) 18:24:13 137.9125
GONETS M04 24 Jul 18:15:29 18:17:07 11° 293° (WNW) 18:18:45
NOAA 15 24 Jul 18:32:48 18:37:59 61° 258° (WSW) 18:43:10 137.62
STARS 24 Jul 18:34:03 18:34:25 10° 294° (WNW) 18:34:46 437.465
GOMX 1 24 Jul 18:34:12 18:38:18 70° 78° (ENE) 18:42:30 467.674
BEESAT 3 24 Jul 18:34:47 18:38:24 38° 113° (ESE) 18:42:04 437.485
BEESAT 2 24 Jul 18:35:51 18:38:38 19° 110° (ESE) 18:41:25 435.950
DOVE 4 24 Jul 18:42:28 18:46:13 33° 73° (ENE) 18:50:06 437.250
HO-68 24 Jul 18:45:18 18:50:01 19° 62° (ENE) 18:54:44 435.675
BRITE-PL 24 Jul 18:55:59 18:59:20 22° 263° (W) 19:02:37 437.365/2234.400
CUBESAT XI-V 24 Jul 19:08:26 19:11:34 18° 290° (WNW) 19:14:41 437.345
PHONESAT 2.4 24 Jul 19:13:12 19:15:31 19° 344° (NNW) 19:17:51 2401.200-2431.200
CINEMA 3 24 Jul 19:15:57 19:19:17 22° 70° (ENE) 19:22:45 145.822/145.860
Cubesat XI-IV 24 Jul 19:18:39 19:23:17 30° 262° (W) 19:27:58 437.490
COMPASS 1 24 Jul 19:30:05 19:30:46 10° 68° (ENE) 19:31:26 437.405
